Location: Unspecified
(52.0000°N, 4.4000°E)
Time: 23:48:23
(UTC+00:00)

SeaSat 1 - Pass Details

Date: 14 May 2025
Orbit: 738 x 740 km, 108.0° (Epoch: 15 June)

Event Time Altitude Azimuth Distance (km) Brightness Sun altitude
Exits shadow 20:23:20 - 124° (SE) 2,352 4.4 -7.4°
Reaches altitude 10° 20:23:36 10° 123° (ESE) 2,248 4.3 -7.4°
Maximum altitude 20:28:18 49° 50° (NE) 958 3.0 -7.9°
Drops below altitude 10° 20:33:01 10° 337° (NNW) 2,262 6.3 -8.5°
Sets 20:35:20 0° 332° (NNW) 3,189 7.5 -8.7°
